TimeMST,TemperatureF,Dew PointF,Humidity,Sea Level PressureIn,VisibilityMPH,Wind Direction,Wind SpeedMPH,Gust SpeedMPH,PrecipitationIn,Events,Conditions,WindDirDegrees,DateUTC
12:53 AM,37.0,26.1,65,30.33,10.0,SW,4.6,-,N/A,,Scattered Clouds,230,2012-11-15 07:53:00
1:53 AM,36.0,25.0,64,30.33,10.0,WSW,6.9,-,N/A,,Partly Cloudy,240,2012-11-15 08:53:00
2:53 AM,30.0,25.0,82,30.37,10.0,West,3.5,-,N/A,,Mostly Cloudy,270,2012-11-15 09:53:00
3:53 AM,30.0,23.0,75,30.37,10.0,Calm,Calm,-,N/A,,Mostly Cloudy,0,2012-11-15 10:53:00
4:53 AM,28.0,23.0,81,30.38,10.0,SE,3.5,-,N/A,,Mostly Cloudy,140,2012-11-15 11:53:00
5:53 AM,27.0,21.9,81,30.39,10.0,Calm,Calm,-,N/A,,Clear,0,2012-11-15 12:53:00
6:53 AM,21.9,19.9,92,30.41,10.0,West,4.6,-,N/A,,Clear,280,2012-11-15 13:53:00
7:53 AM,24.1,21.9,91,30.41,10.0,WSW,3.5,-,N/A,,Clear,250,2012-11-15 14:53:00
8:53 AM,27.0,23.0,85,30.41,10.0,Calm,Calm,-,N/A,,Clear,0,2012-11-15 15:53:00
9:53 AM,30.9,23.0,72,30.39,10.0,Calm,Calm,-,N/A,,Clear,0,2012-11-15 16:53:00
10:53 AM,32.0,24.1,73,30.40,10.0,WNW,3.5,-,N/A,,Clear,300,2012-11-15 17:53:00
11:53 AM,35.1,24.1,64,30.34,10.0,Calm,Calm,-,N/A,,Clear,0,2012-11-15 18:53:00
12:53 PM,36.0,24.1,62,30.30,10.0,Calm,Calm,-,N/A,,Clear,0,2012-11-15 19:53:00
1:53 PM,36.0,25.0,64,30.27,10.0,WNW,4.6,-,N/A,,Clear,300,2012-11-15 20:53:00
2:53 PM,35.1,25.0,67,30.26,10.0,West,5.8,-,N/A,,Clear,280,2012-11-15 21:53:00
3:53 PM,34.0,25.0,70,30.25,10.0,West,4.6,-,N/A,,Clear,270,2012-11-15 22:53:00
4:53 PM,34.0,25.0,70,30.26,10.0,Calm,Calm,-,N/A,,Clear,0,2012-11-15 23:53:00
5:53 PM,30.0,23.0,75,30.27,10.0,South,3.5,-,N/A,,Clear,190,2012-11-16 00:53:00
6:53 PM,27.0,21.0,78,30.27,10.0,Calm,Calm,-,N/A,,Clear,0,2012-11-16 01:53:00
7:53 PM,26.1,21.9,84,30.25,10.0,North,-9999.0,-,N/A,,Clear,0,2012-11-16 02:53:00
8:53 PM,25.0,21.0,85,30.23,10.0,West,4.6,-,N/A,,Clear,260,2012-11-16 03:53:00
9:53 PM,26.1,21.0,81,30.20,10.0,Calm,Calm,-,N/A,,Clear,0,2012-11-16 04:53:00
10:53 PM,24.1,19.0,81,30.19,10.0,Calm,Calm,-,N/A,,Clear,0,2012-11-16 05:53:00
11:53 PM,21.9,18.0,85,30.17,10.0,Calm,Calm,-,N/A,,Clear,0,2012-11-16 06:53:00